CZ-6A DEB, 61428

Orbit data source: Space-Track

CZ-6A DEB, 61428 is space debris in LEO originally from a launch on Tue, 06 Aug 2024 UTC launched from the Taiyaun Space Center, China (TSC). Debris objects in space refer to the collection of defunct objects orbiting the Earth. Examples of debris include non-operational satellites, rocket bodies, and fragments generated from explosions, collisions, or faulty payload assembly.

Loading next visibility...
Identifier
61428, 2024-140YV
Orbit
LEO
Country
Flag of CNCN / PRC
Related business
Manufacturer
SAST
Mission
Spacecraft
Bus & Motor
Unknown
Mass
Unknown
Launch date (UTC)
2024-08-06 (2 years ago)
Launch vehicle
Unknown
Launch site
Taiyaun Space Center, China (TSC)
Object type
Payload
Rocket body
Debris
Shape & HBR
Unknown shape, 0.2 m
Radar Cross Section
Medium (>0.1 m² and <1 m²)

Expand to show TLE details & history
Last TLE update: 12 hours ago

TLE from 12 hours ago
0 CZ-6A DEB
1 61428U 24140YV  26171.33233132  .00001556  00000-0  67584-3 0  9999
2 61428  89.2804 296.5148 0074345 218.7281 140.8568 14.22290829 94757
Epoch: 2026-06-20T07:58Z
TLE epoch observation values (Epoch: 2026-06-20T07:58:33.426Z)
Latitude
0.00003°
Longitude
-91.67295°
Altitude
862.33 km
Speed
7.4 km/s
True Right ascension
19h 46m 03s
True Declination
0° 00' 00"
Sunlit
Object was in full shadow at epoch
Visualization orbit readout
Latitude
Unknown
Longitude
Unknown
Altitude
Unknown
Speed
Unknown
Apparent Right ascension
Unknown
Apparent Declination
Unknown
Sunlit
N/A
Visualization observer readout
Local Sidereal Time
07:20:57
Azimuth
Unknown
Elevation
Unknown
Doppler factor
Unknown
Orbital elements
Apogee altitude
868.036 km
Perigee altitude
761.088 km
Semi-major axis
7,192.699 km
Eccentricity
0.00743
Inclination
89.2804°
RAAN
296.5148°
Arg. of periapsis
218.7281°
True anomaly
141.39073°
Mean anomaly
140.8568°
Eccentric anomaly
141.12415°
Mean motion
3.55799 °/min
Orbital period
101.18 mins
BSTAR
0.00067584
Loading maneuver chart data...
Computing Atmospheric mass density...
Loading historical data...
Loading historical data...
Loading historical data...
Loading historical data...
Loading historical data...
Loading historical data...
Loading historical data...

Documentation

Showing up to 5 results
|